Flag for Germany Weather past 2 weeks in Schwedt/Oder, Brandenburg, Germany

Now
66 °F

Sunny.


Feels Like: 66 °F
Forecast: 55 / 75 °F
Wind: 5 mph from East

Location: Szczecin Airport

Current Time: Sep 18, 2014 at 7:59:46 PM

Latest Report: Sep 18, 2014 at 7:30 PM


Visibility: 10 mi

Pressure: 30.01 "Hg

Humidity: 64%

Dew point: 54 °F

Location of Schwedt/OderLocation

Historic Weather in Schwedt/Oder — Graph

°F

Schwedt/Oder temperature yesterday

Maximum temperature yesterday: 73 °F (at 3:00 PM)
Minimum temperature yesterday: 52 °F (at 7:00 AM)
Average temperature yesterday: 62 °F

Past Weeks' High & Low Weather Summary

 TemperatureHumidityPressure
High79 °F (Sep 15, 4:30 PM)100% (Sep 7, 10:30 PM)30.30 "Hg (Sep 7, 10:30 PM)
Low48 °F (Sep 10, 10:30 PM)39% (Sep 6, 2:30 PM)29.89 "Hg (Sep 7, 3:30 PM)
Average63 °F78%30.07 "Hg
* Reported Sep 3 7:00 PM — Sep 18 7:00 PM, Schwedt/Oder, Weather by CustomWeather, © 2014

Note: Actual official high and low records may vary slightly from our data, if they occured in-between our weather recording intervals... More about our weather records

Advertising

Schwedt/Oder weather history for previous 24 hours

 ConditionsComfort  
Time TempWeatherWind HumidityBarometerVisibility
7:00 PM
Sep 18
68 °FSunny.3 mph60%30.01 "Hg10 mi
6:30 PM70 °FSunny.6 mph57%30.01 "Hg10 mi
6:00 PM72 °FSunny.7 mph53%30.01 "Hg10 mi
5:30 PM72 °FSunny.9 mph50%30.01 "Hg10 mi
5:00 PM73 °FSunny.9 mph47%30.01 "Hg10 mi
4:30 PM73 °FPassing clouds.9 mph47%30.01 "HgN/A
4:00 PM73 °FSunny.9 mph50%30.01 "Hg10 mi
3:30 PM73 °FPassing clouds.8 mph47%30.01 "HgN/A
3:00 PM73 °FPassing clouds.9 mph47%30.01 "HgN/A
2:30 PM73 °FPassing clouds.10 mph47%30.01 "HgN/A
2:00 PM73 °FPassing clouds.12 mph50%30.04 "HgN/A
1:30 PM72 °FSunny.12 mph53%30.04 "Hg10 mi
1:00 PM72 °FSunny.12 mph53%30.04 "Hg10 mi
12:30 PM70 °FSunny.12 mph53%30.04 "Hg10 mi
12:00 PM70 °FPassing clouds.12 mph53%30.04 "HgN/A
11:30 AM68 °FSunny.10 mph56%30.07 "Hg10 mi
11:00 AM66 °FPassing clouds.10 mph60%30.07 "HgN/A
10:30 AM66 °FSunny.8 mph60%30.07 "Hg10 mi
10:00 AM63 °FSunny.8 mph68%30.07 "Hg10 mi
9:30 AM61 °FSunny.8 mph72%30.07 "Hg10 mi
9:00 AM59 °FSunny.9 mph77%30.07 "Hg10 mi
8:30 AM57 °FSunny.7 mph77%30.07 "Hg10 mi
8:00 AM55 °FSunny.7 mph82%30.07 "Hg10 mi
7:30 AM55 °FClear.7 mph77%30.07 "Hg10 mi
7:00 AM54 °FClear.7 mph82%30.07 "Hg10 mi
6:30 AM55 °FClear.7 mph77%30.07 "Hg10 mi
6:00 AM55 °FClear.9 mph77%30.07 "Hg10 mi
5:30 AM55 °FClear.9 mph77%30.07 "Hg10 mi
5:00 AM55 °FClear.7 mph77%30.07 "Hg10 mi
4:30 AM55 °FClear.8 mph77%30.07 "Hg10 mi
4:00 AM57 °FClear.6 mph72%30.07 "Hg10 mi
3:30 AM57 °FClear.8 mph72%30.07 "Hg10 mi
3:00 AM59 °FClear.8 mph68%30.07 "Hg10 mi
2:30 AM59 °FClear.8 mph72%30.07 "Hg10 mi
2:00 AM57 °FClear.7 mph72%30.07 "Hg10 mi
1:30 AM57 °FClear.7 mph72%30.07 "Hg10 mi
1:00 AM59 °FClear.7 mph68%30.07 "Hg10 mi
12:30 AM59 °FClear.6 mph68%30.07 "Hg10 mi
12:00 AM59 °FClear.7 mph68%30.07 "Hg10 mi
11:30 PM
Sep 17
61 °FClear.7 mph63%30.07 "Hg10 mi
11:00 PM61 °FClear.7 mph63%30.09 "Hg10 mi
10:30 PM61 °FClear.7 mph68%30.09 "Hg10 mi
10:00 PM63 °FClear.7 mph64%30.09 "Hg10 mi
9:30 PM63 °FClear.6 mph64%30.09 "Hg10 mi
9:00 PM63 °FClear.7 mph64%30.09 "Hg10 mi
8:30 PM64 °FClear.6 mph60%30.09 "Hg10 mi
8:00 PM64 °FSunny.6 mph60%30.07 "Hg10 mi
7:30 PM66 °FSunny.6 mph60%30.07 "Hg10 mi
7:00 PM66 °FSunny.6 mph64%30.07 "Hg10 mi
Weather by CustomWeather, © 2014

See weather overviewHow to use our weather pages